Regional Weather Roundup
Issued by NWS

Home | Current Version | Previous Version | Graphics & Text | Print | Product List | Glossary On
Versions: 1 2 3 4 5 6 7 8 9 10 11 12 13 14 15 16 17 18 19 20 21 22 23 24 25 26 27 28 29 30 31 32 33 34 35 36 37 38 39 40 41 42 43 44 45 46 47 48 49 50
000
ASUS45 KSLC 241410
RWRUT

UTAH REGIONAL WEATHER ROUNDUP
NATIONAL WEATHER SERVICE SALT LAKE CITY UT
700 AM MST SAT JAN 24 2015

UTZ001>011-023>025-241500-

NORTHERN UTAH

CITY           SKY/WX    TMP DP  RH WIND       PRES   REMARKS
BRIGHAM CITY   PTCLDY    24  21  88 CALM      30.50S
HILL AFB       PTCLDY    25  16  68 SE13      30.47R WCI  13
LOGAN          CLEAR     21  18  88 CALM      30.49R
OGDEN          PTCLDY    24  18  77 S8        30.47R WCI  15
PROVO AIRPORT  PTCLDY    19  16  86 CALM      30.48F
SALT LAKE CITY PTCLDY    25  19  78 SE8       30.48R WCI  16
VERNAL         CLOUDY    16  11  80 W5        30.43R WCI   9
WENDOVER       CLOUDY    21  18  86 NE8       30.46R WCI  12
HEBER CITY     PTCLDY    10   9  92 CALM      30.46S
WEST JORDAN    CLEAR     27  21  80 S6        30.47R WCI  20

$$

UTZ012>022-026-027-241500-

SOUTHERN/CENTRAL UTAH

CITY           SKY/WX    TMP DP  RH WIND       PRES   REMARKS
BLANDING       CLEAR     24  13  62 CALM      30.44R
BRYCE CANYON   CLEAR     15  11  83 NW7       30.42R WCI   5
CEDAR CITY     PTCLDY    19  15  84 CALM      30.45R
DELTA          PTCLDY    19  17  90 S8        30.47F WCI   9
MILFORD        CLEAR     22  17  81 VRB7      30.47S WCI  13
MOAB/CYNLANDS  CLEAR     21  15  78 CALM      30.40F
PRICE          CLEAR     20  12  71 E3        30.36S
ST GEORGE      MOSUNNY   34  18  51 SW6       30.42R WCI  29
KANAB          CLEAR     30  18  59 N10       30.41R WCI  21

$$

REGIONAL REPORTS     COLORADO/ARIZONA

CITY           SKY/WX    TMP DP  RH WIND       PRES   REMARKS
CRAIG, CO      CLOUDY     4   0  83 CALM      30.42R
GRAND JUNCTION PTCLDY    24  12  60 SE15      30.42F WCI  11
RIFLE          PTCLDY    16   9  74 SW7       30.46R WCI   6
MONTROSE       CLEAR     17   8  67 SE8       30.42F WCI   7
CORTEZ         CLEAR     18  13  80 E5        30.39R WCI  11
PAGE, AZ       NOT AVBL
GRAND CANYON   PTCLDY    34   7  32 NE17G24   30.34R WCI  23
KINGMAN        CLEAR     35  17  47 NE12      30.29R WCI  27
FLAGSTAFF      CLEAR     30   6  36 E8        30.32R WCI  22

$$

REGIONAL REPORTS    NEVADA/IDAHO/WYOMING

CITY           SKY/WX    TMP DP  RH WIND       PRES   REMARKS
LAS VEGAS, NV  CLEAR     50  22  33 SW3       30.31R
ELY            CLEAR     15  13  91 S9        30.47F WCI   3
ELKO           CLEAR     21  17  84 CALM      30.48R
POCATELLO, ID  CLOUDY    27  27 100 NE10      30.49R FOG     WCI  17
BURLEY         CLOUDY    29  28  96 CALM      30.45S FOG
EVANSTON, WY   PTCLDY    18  14  84 SW14      30.39R WCI   4
ROCK SPRINGS   CLOUDY    24  16  71 W15       30.34R WCI  11

$$


USA.gov is the U.S. government's official web portal to all federal, state and local government web resources and services.